Dewpoint
51 51 51 51 51 50 50 50 51 51 51 52 52 52 52 53 53 52 50 51 47 42 41 42 42 42 40 40 35 38 35 38 37 34 34 33 32 34 33 33 33 31 30 29 30 28 27 41 41 37 39 40 41 43
51 51 51 51 51 50 49 50 51 51 52 52 52 53 53 53 53 51 49 52 51 45 43 45 44 45 46 45 43 41 38 38 39 35 36 35 33 35 35 30 37 33 33 33 33 33 38 42 41 42 42 41 42 41
51 51 51 51 51 51 50 51 51 51 52 52 52 53 53 53 53 51 51 51 49 45 43 42 40 43 48 47 49 41 42 41 41 42 38 37 33 36 32 33 35 37 39 35 35 38 40 41 42 42 42 41 43 44
51 51 51 51 50 50 49 50 51 51 51 52 53 53 52 52 53 52 51 51 48 45 41 37 42 42 44 43 46 46 44 45 43 38 37 37 35 36 35 35 35 37 38 36 37 39 40 41 42 44 44 43 43 44
50 50 51 51 50 49 49 50 51 51 51 52 53 52 52 52 53 51 51 49 49 45 41 39 39 41 43 42 41 41 42 42 39 35 34 35 37 36 37 38 35 39 37 35 35 40 41 41 44 46 44 43 43 44
50 50 51 50 50 49 49 49 50 51 51 51 52 52 53 53 52 50 48 49 48 49 43 39 39 40 42 43 41 41 42 42 42 39 38 38 37 38 35 34 39 41 42 42 40 42 43 42 43 44 44 45 43 43
50 50 50 50 50 49 49 49 50 51 50 52 52 51 51 52 51 46 43 46 48 47 43 42 43 44 44 45 44 44 43 42 41 40 39 39 39 38 36 33 39 41 41 42 43 42 40 43 44 45 44 43 45 44
50 50 50 50 49 49 49 49 49 50 50 51 52 51 51 50 48 46 49 49 46 42 43 43 44 44 44 42 42 43 42 42 41 41 41 38 40 40 35 39 41 40 40 40 42 42 43 43 44 45 46 44 43 43
49 50 50 51 49 49 49 49 49 49 50 52 52 50 50 48 48 47 50 49 47 45 43 42 41 42 44 42 41 43 43 39 42 41 40 40 37 33 38 40 40 41 40 39 38 40 41 41 42 42 43 44 44 44
49 50 50 50 51 49 49 49 49 49 52 51 49 48 48 48 50 50 47 45 45 43 43 40 44 43 44 42 41 40 40 36 35 38 41 35 37 38 40 41 43 42 41 40 38 38 40 40 40 41 42 43 43 44
49 50 50 50 51 51 50 50 49 50 49 47 48 48 49 50 49 47 43 42 42 42 42 42 42 43 46 43 40 41 37 39 33 35 37 34 36 39 39 40 44 43 41 40 39 40 41 41 41 41 40 41 41 42
49 49 50 50 51 50 50 50 50 49 49 48 48 49 49 47 44 40 37 36 38 37 40 44 46 45 46 47 44 41 37 38 31 36 35 34 40 40 41 39 41 42 40 40 40 39 39 39 39 39 40 41 41 41
49 49 50 50 49 49 50 51 51 50 50 50 49 47 42 41 37 32 36 38 32 34 37 42 41 47 46 44 43 41 34 33 35 33 34 38 41 41 42 41 38 44 41 41 40 40 40 38 39 39 39 40 41 41
49 49 50 50 50 51 51 51 52 50 50 48 47 40 36 34 33 34 33 34 36 36 36 37 44 46 46 42 39 34 35 34 29 31 34 38 41 40 42 41 38 37 43 41 41 41 41 42 41 41 40 40 39 39
49 49 50 51 51 51 51 51 52 51 49 45 44 39 35 35 34 35 37 36 37 37 38 40 38 37 36 34 33 31 29 30 33 33 35 40 43 43 41 40 37 34 40 43 42 42 42 42 42 43 43 42 40 40
49 50 51 50 51 50 51 52 51 51 50 47 46 39 37 34 34 34 35 36 37 37 38 36 35 33 33 32 28 29 29 30 33 40 38 39 42 43 43 42 40 35 37 40 43 42 41 42 42 44 44 43 42 40
49 47 50 50 50 51 51 51 51 50 47 44 40 42 39 37 36 37 36 37 38 35 32 33 29 29 34 29 30 36 33 37 36 35 37 41 44 44 42 42 40 37 38 39 42 43 43 44 44 40 35 37 37 41
46 46 48 49 49 50 51 51 51 48 44 44 40 41 40 39 38 39 40 40 37 36 36 33 34 29 29 29 29 33 36 36 37 35 36 40 42 41 37 37 39 38 40 39 38 37 36 38 35 29 34 34 32 36
46 48 49 50 49 49 49 51 52 45 43 45 43 42 42 42 47 48 47 41 40 40 37 35 33 31 36 41 39 36 36 35 33 36 37 40 39 38 37 38 38 37 38 36 35 29 31 36 30 29 29 29 27 30
50 51 52 51 50 50 49 51 51 46 43 44 43 43 43 49 49 48 46 40 38 38 35 39 37 40 42 44 41 38 37 37 36 31 32 34 35 34 34 35 32 36 34 33 31 33 30 29 29 30 28 29 29 30
50 53 51 51 51 50 50 49 47 45 45 44 44 46 47 50 48 47 46 47 38 37 37 42 44 42 42 44 42 39 38 37 34 35 33 27 30 29 30 31 31 31 29 27 27 28 30 28 29 29 30 30 31 32
51 52 53 52 52 53 53 53 47 46 45 44 46 46 46 47 47 48 48 42 40 41 40 41 41 41 42 44 42 41 41 42 40 35 35 33 27 27 28 29 29 29 28 27 28 27 27 28 29 30 30 31 33 32
52 53 53 53 52 46 45 48 43 46 44 44 44 43 46 47 48 50 46 46 46 46 43 42 44 44 44 44 44 44 43 40 35 30 30 28 28 29 27 28 28 29 29 30 30 29 29 32 31 31 31 32 31 31
51 53 51 50 48 45 46 43 47 48 44 42 42 40 44 47 49 43 41 45 45 46 45 47 43 40 41 44 41 42 42 35 29 29 30 28 26 26 27 27 27 28 29 29 29 29 31 32 33 31 31 29 29 29
44 42 43 37 42 43 40 42 42 43 41 43 41 41 46 48 44 41 41 44 44 45 50 49 44 41 39 38 36 36 35 29 29 37 32 28 27 25 27 30 28 27 28 28 27 28 31 32 33 34 30 29 30 30
37 44 42 40 44 42 41 39 40 41 43 42 42 46 48 45 39 38 42 46 44 48 49 45 41 38 38 39 35 32 30 31 35 35 29 28 27 30 33 32 25 25 28 29 29 30 30 31 32 33 33 30 33 29
39 43 46 46 44 45 46 48 47 45 42 42 43 43 44 40 38 43 47 46 47 49 48 44 41 38 38 36 37 37 33 33 33 31 28 28 31 32 29 26 26 28 30 30 31 31 30 31 31 30 29 30 31 30
46 47 43 45 45 46 44 45 44 44 43 48 46 39 37 39 40 44 45 46 47 46 34 31 32 29 29 29 29 29 28 28 28 28 29 29 29 30 30 29 30 34 31 31 31 32 31 30 30 30 30 30 31 32
46 50 49 46 45 45 47 46 45 48 50 48 42 41 43 47 47 45 46 47 48 33 28 27 28 28 28 28 28 28 28 27 27 28 28 28 30 30 33 32 33 31 32 31 35 35 34 31 31 31 31 31 32 32
44 48 46 44 42 42 46 51 50 51 50 46 49 50 49 49 44 43 45 40 39 31 28 27 27 26 26 25 25 26 27 27 27 27 26 28 28 30 32 33 33 34 34 32 30 31 34 32 32 31 30 29 29 29
46 46 45 44 44 45 47 49 50 49 48 49 49 48 46 45 40 34 32 32 30 28 27 26 26 26 25 25 25 24 24 27 29 31 30 29 30 32 33 34 36 37 37 34 31 30 30 31 30 29 29 29 29 29
46 46 45 44 45 49 47 48 45 45 47 46 47 49 46 47 41 38 32 30 29 28 31 28 26 26 26 26 27 27 30 27 29 31 33 33 34 35 34 34 34 33 34 33 31 31 32 31 30 29 29 30 29 30
49 46 46 44 44 45 45 46 43 44 45 44 45 47 46 43 40 36 35 33 30 28 29 29 27 28 30 28 27 27 29 29 33 34 34 33 33 33 32 32 32 32 31 31 31 30 31 31 30 30 29 29 29 29
Lifted_Index
9 9 8 7 7 7 6 6 6 5 5 6 6 6 6 6 6 7 7 7 7 7 6 7 7 6 6 5 5 5 5 4 4 3 3 3 3 3 3 3 3 3 3 3 4 4 4 3 1 1 1 2 2 2
9 9 7 7 7 7 6 6 5 5 5 5 5 5 6 6 6 6 7 7 7 6 6 6 6 6 6 5 5 5 5 4 4 4 4 4 3 3 3 3 3 3 3 4 4 4 5 4 3 2 2 2 2 3
9 8 7 7 7 6 6 5 5 5 5 4 4 5 6 6 6 6 6 6 6 5 5 5 6 6 6 6 5 5 5 5 5 5 5 4 4 4 4 4 4 4 5 5 4 5 5 5 5 4 3 3 4 4
9 8 7 6 6 6 5 5 4 4 4 4 4 5 5 5 5 5 5 5 5 5 4 4 5 5 6 6 5 5 5 5 5 5 5 5 5 5 5 5 5 5 5 5 5 5 6 6 5 5 4 4 5 6
9 8 7 6 6 6 5 5 4 4 4 4 4 4 4 5 5 4 4 4 5 4 4 3 4 5 5 5 5 5 5 5 5 5 5 5 5 6 6 6 6 7 6 5 5 6 6 6 6 6 6 6 6 7
8 8 7 6 6 6 5 5 4 4 4 3 3 3 4 4 4 3 3 3 4 4 2 2 3 3 4 4 4 4 5 5 5 4 5 5 6 6 6 6 7 8 7 7 6 6 6 6 6 6 6 6 7 7
8 8 7 6 6 6 6 5 4 4 3 3 3 3 3 3 3 2 2 3 4 3 2 1 1 2 2 3 3 4 4 5 5 5 5 5 6 6 6 6 7 8 8 8 7 7 7 7 7 6 6 6 7 7
8 8 7 6 6 6 6 6 5 4 3 3 3 3 3 2 2 2 2 3 4 2 1 1 1 1 1 1 2 3 3 4 5 5 5 6 6 6 6 6 6 7 8 8 8 8 8 8 8 7 7 7 7 7
8 8 7 6 6 6 6 5 5 4 3 3 3 2 2 2 1 2 3 3 3 2 1 1 1 1 1 1 2 2 3 4 4 5 5 6 6 6 6 6 6 6 7 9 9 9 8 8 8 8 8 8 7 7
8 8 7 6 6 5 5 5 4 4 3 3 2 2 1 1 2 2 2 2 2 1 1 1 1 1 1 1 1 2 3 3 4 5 5 6 6 6 6 6 6 6 7 8 9 9 9 9 9 9 9 9 8 8
8 7 7 6 5 5 4 4 4 3 3 2 2 2 1 1 1 2 2 2 2 1 1 1 1 1 1 1 1 2 2 3 4 4 5 5 5 5 6 6 6 6 7 8 9 9 9 10 10 9 9 9 9 9
8 7 6 6 5 5 4 4 4 3 3 2 2 2 2 1 2 2 2 2 2 2 2 1 1 1 0 1 1 2 2 3 3 4 5 4 4 4 5 5 6 6 7 8 9 9 10 10 10 10 10 10 10 10
7 7 6 6 5 5 4 4 4 4 3 2 2 1 2 2 2 2 2 2 2 2 2 2 1 1 1 1 1 2 2 3 4 4 4 4 3 3 4 5 5 6 6 7 8 9 10 10 11 11 11 12 12 12
7 6 6 5 5 5 4 5 5 4 3 2 1 1 2 2 2 2 2 2 3 3 3 2 1 1 1 2 2 3 3 3 3 3 3 3 3 3 3 4 5 5 5 5 6 7 8 9 10 10 11 12 12 13
7 6 5 5 5 5 5 5 4 3 2 2 2 1 1 1 1 1 2 3 3 4 3 3 2 2 2 3 3 3 3 3 3 3 3 2 2 2 3 4 5 5 5 5 5 6 6 7 8 8 9 10 11 12
7 6 5 5 5 5 5 4 3 2 2 2 2 1 1 1 1 1 2 2 3 3 3 3 3 2 3 3 3 3 3 2 2 2 2 2 2 2 2 3 4 5 5 4 4 5 5 6 6 7 8 9 10 11
6 6 5 5 6 5 4 3 2 2 1 1 1 1 1 1 1 1 1 1 2 2 2 2 2 2 2 2 2 2 2 2 2 3 2 2 2 2 2 3 3 4 4 4 4 4 5 5 6 7 8 9 9 10
6 6 5 5 5 4 3 3 2 1 1 1 1 1 0 0 0 0 0 1 1 1 2 2 2 2 2 2 2 2 2 3 3 3 3 3 2 3 3 3 4 4 4 4 5 5 5 6 6 7 8 9 9 9
5 5 4 4 4 3 2 2 1 1 1 1 1 1 0 -0 -0 -0 0 0 1 1 1 2 2 2 2 2 2 2 3 3 3 3 3 3 3 4 4 4 4 4 4 5 5 6 6 6 7 8 8 9 9 9
4 3 3 3 3 2 2 1 1 1 1 1 1 1 0 -0 -0 -0 0 0 1 1 1 1 1 1 1 1 2 2 2 3 3 3 3 4 4 4 5 5 5 4 4 5 5 6 6 7 7 8 8 8 8 9
2 2 2 2 2 1 1 0 1 1 1 1 1 0 0 0 -0 0 1 1 1 1 0 0 0 1 1 1 1 1 2 2 2 3 3 4 5 5 5 5 5 4 4 4 5 5 6 6 7 7 8 8 8 8
2 2 2 1 1 0 0 1 1 1 1 0 0 0 0 -0 0 0 1 1 1 1 1 0 0 1 1 1 1 1 1 1 2 3 4 5 5 5 5 5 4 4 4 4 5 5 5 6 7 7 7 7 7 7
2 2 1 1 -0 -0 1 1 1 1 0 0 0 1 0 0 0 1 1 1 1 1 1 1 1 1 1 1 1 1 1 1 2 3 4 5 5 5 5 4 4 4 4 4 4 4 5 5 6 6 7 7 7 7
3 2 1 1 0 0 1 1 1 0 0 0 1 1 1 0 1 1 1 1 1 1 1 1 1 1 1 1 1 1 1 2 2 3 4 4 5 4 4 4 4 4 4 4 4 4 4 4 5 5 6 6 6 7
3 3 2 2 1 1 1 0 0 0 0 1 1 1 1 1 1 1 1 1 1 1 0 0 0 1 1 1 1 2 2 2 3 3 4 4 4 4 4 4 3 3 3 3 3 3 3 3 4 4 5 6 6 6
3 3 3 2 1 1 0 0 -0 -0 0 0 1 1 1 1 1 1 1 1 1 0 -0 -0 0 1 1 2 2 2 3 3 3 4 4 5 4 4 4 3 3 3 3 3 2 2 2 3 3 4 5 5 5 6
3 2 2 1 1 0 -0 -0 -0 -0 -0 0 1 1 1 1 1 1 2 2 1 1 0 0 1 1 2 3 4 4 4 4 4 5 5 5 5 4 4 4 3 3 3 3 2 2 2 2 3 3 4 4 5 5
2 1 1 1 1 0 -0 -1 -1 -0 -0 0 1 1 1 1 1 2 2 2 2 2 2 2 3 4 5 6 6 7 6 6 6 6 6 6 5 5 5 4 4 4 4 4 3 3 3 3 3 3 4 4 5 5
1 1 0 0 0 -0 -1 -1 -1 -1 -0 -0 0 1 1 1 2 2 3 3 4 4 4 5 5 6 6 7 8 8 8 8 7 7 7 6 6 6 5 5 5 4 4 4 4 3 3 3 3 4 4 4 5 5
1 1 0 -0 -0 -0 -1 -1 -1 -1 -1 -0 0 1 1 2 2 3 3 4 5 5 6 6 6 7 7 8 8 9 9 9 9 9 8 8 7 7 6 6 5 5 4 4 4 4 4 4 4 4 5 5 5 5
1 0 0 -0 -0 -1 -1 -1 -1 -1 -1 -0 0 1 1 2 2 3 3 4 5 6 6 7 7 7 8 8 9 10 10 11 11 10 10 9 8 8 7 7 6 6 5 5 5 5 4 4 5 5 5 6 6 6
0 0 -0 -0 -1 -1 -1 -1 -1 -1 -1 -0 0 1 1 2 2 2 3 4 5 6 7 7 8 8 8 9 10 11 12 12 12 11 11 10 10 9 8 8 7 7 7 6 6 6 5 5 6 6 6 7 7 7
0 0 -0 -1 -1 -1 -1 -1 -1 -1 -0 -0 0 1 1 1 2 2 4 5 6 6 7 8 8 8 9 10 11 12 12 13 12 12 11 11 10 10 9 9 9 8 8 7 7 7 7 6 7 7 7 7 8 8